This is the latest recevied weather packets stored in our database for station/object CQ0XVC-11. If no packets are shown the sender has not sent any weather packets the latest 10 day(s).
| Time | Temp. | Humidity | Pressure | Rain* | Wind** | Luminosity | Snow |
|---|---|---|---|---|---|---|---|
| 1777110475 | 16.67° C | 58% | 1003.3 hPa | 0 mm | - | - | - |
| 1777110200 | 16.67° C | 57% | 1003.7 hPa | 0 mm | - | - | - |
| 1777109939 | 16.67° C | 58% | 1003.5 hPa | 0 mm | - | - | - |
| 1777109898 | 16.67° C | 58% | 1003.5 hPa | 0 mm | - | - | - |
| 1777109631 | 16.11° C | 62% | 1003.5 hPa | 0 mm | - | - | - |
| 1777109596 | 16.11° C | 62% | 1003.5 hPa | 0 mm | - | - | - |
| 1777109293 | 16.11° C | 60% | 1003.6 hPa | 0 mm | - | - | - |
| 1777109032 | 16.11° C | 60% | 1003.6 hPa | 0 mm | - | - | - |
| 1777108992 | 16.11° C | 60% | 1003.6 hPa | 0 mm | - | - | - |
| 1777108689 | 15.56° C | 62% | 1003.4 hPa | 0 mm | - | - | - |
| 1777108419 | 15.56° C | 60% | 1003.9 hPa | 0 mm | - | - | - |
| 1777108387 | 15.56° C | 60% | 1003.9 hPa | 0 mm | - | - | - |
| 1777108132 | 15.56° C | 63% | 1003.7 hPa | 0 mm | - | - | - |
| 1777108085 | 15.56° C | 63% | 1003.7 hPa | 0 mm | - | - | - |
| 1777107783 | 15.56° C | 64% | 1003.5 hPa | 0 mm | - | - | - |
| 1777107480 | 15° C | 61% | 1003.5 hPa | 0 mm | - | - | - |
| 1777107216 | 15° C | 64% | 1003.6 hPa | 0 mm | - | - | - |
| 1777107179 | 15° C | 64% | 1003.6 hPa | 0 mm | - | - | - |
| 1777106876 | 15° C | 65% | 1003.6 hPa | 0 mm | - | - | - |
| 1777106574 | 14.44° C | 72% | 1003.5 hPa | 0 mm | - | - | - |
| 1777106537 | 14.44° C | 66% | 1003.6 hPa | 0 mm | - | - | - |
| 1777106296 | 14.44° C | 62% | 1003.5 hPa | 0 mm | - | - | - |
| 1777106235 | 14.44° C | 62% | 1003.5 hPa | 0 mm | - | - | - |
| 1777105968 | 14.44° C | 71% | 1003.5 hPa | 0 mm | - | - | - |
| 1777105932 | 14.44° C | 71% | 1003.5 hPa | 0 mm | - | - | - |
* Rain since midnight (hover to see other rain measurements)
** Current wind speed in m/s (hover to see current wind gust speed)